LHX292 EDDN-EDDH

Flight info

Callsign LHX292
Flight time 0h 56m
Altitude 24000
Route SULUS1G SULUS L604 OBISI P605 ELNAT/N0443F340 P605 NOLGO NOLGO3P
Aircraft A319/M-SDE3FGHIRWY/LB1

Departure

Time 2026-04-22 18:32
Airport Nuremberg Airport (EDDN)

Arrival

Time 2026-04-22 19:28
Airport Hamburg Helmut Schmidt Airport (EDDH)
Time Latitude Longitude Altitude Speed Heading
2026-04-22 17:49 49.49536 11.07584 1026 ft 0 kts 188°
2026-04-22 18:20 49.49556 11.07590 1025 ft 3 kts 195°
2026-04-22 18:20 49.49579 11.07602 1026 ft 3 kts 211°
2026-04-22 18:20 49.49596 11.07624 1025 ft 3 kts 251°
2026-04-22 18:21 49.49598 11.07645 1025 ft 1 kts 278°
2026-04-22 18:21 49.49598 11.07648 1025 ft 0 kts 278°
2026-04-22 18:25 49.49597 11.07644 1026 ft 1 kts 265°
2026-04-22 18:25 49.49592 11.07639 1026 ft 0 kts 213°
2026-04-22 18:25 49.49586 11.07643 1022 ft 1 kts 162°
2026-04-22 18:26 49.49586 11.07656 1024 ft 1 kts 97°
2026-04-22 18:26 49.49586 11.07678 1024 ft 3 kts 90°
2026-04-22 18:26 49.49586 11.07717 1026 ft 5 kts 89°
2026-04-22 18:26 49.49585 11.07775 1027 ft 6 kts 96°
2026-04-22 18:27 49.49580 11.07850 1027 ft 8 kts 97°
2026-04-22 18:27 49.49569 11.07958 1028 ft 12 kts 99°
2026-04-22 18:27 49.49553 11.08101 1028 ft 14 kts 98°
2026-04-22 18:27 49.49538 11.08253 1028 ft 14 kts 98°
2026-04-22 18:28 49.49575 11.08347 1031 ft 10 kts 18°
2026-04-22 18:28 49.49617 11.08403 1034 ft 7 kts 78°
2026-04-22 18:28 49.49611 11.08475 1034 ft 6 kts 99°
2026-04-22 18:28 49.49605 11.08536 1035 ft 5 kts 99°
2026-04-22 18:29 49.49600 11.08592 1036 ft 5 kts 97°
2026-04-22 18:29 49.49595 11.08642 1036 ft 4 kts 98°
2026-04-22 18:29 49.49590 11.08697 1037 ft 7 kts 98°
2026-04-22 18:29 49.49580 11.08797 1037 ft 12 kts 98°
2026-04-22 18:30 49.49565 11.08945 1039 ft 16 kts 98°
2026-04-22 18:30 49.49531 11.09342 1045 ft 18 kts 82°
2026-04-22 18:30 49.49594 11.09492 1049 ft 16 kts 53°
2026-04-22 18:31 49.49679 11.09542 1053 ft 13 kts 340°
2026-04-22 18:31 49.49711 11.09406 1050 ft 16 kts 279°
2026-04-22 18:31 49.49756 11.08958 1042 ft 81 kts 278°
2026-04-22 18:31 49.49877 11.07741 1024 ft 146 kts 278°
2026-04-22 18:32 49.50039 11.06074 1443 ft 159 kts 281°
2026-04-22 18:32 49.50200 11.04388 2119 ft 160 kts 283°
2026-04-22 18:32 49.50375 11.02641 2580 ft 175 kts 283°
2026-04-22 18:32 49.50575 11.00673 2947 ft 198 kts 282°
2026-04-22 18:33 49.50797 10.98460 3290 ft 221 kts 282°
2026-04-22 18:33 49.51038 10.96023 3691 ft 243 kts 282°
2026-04-22 18:33 49.51707 10.93566 4179 ft 258 kts 315°
2026-04-22 18:33 49.53230 10.92178 5058 ft 259 kts 348°
2026-04-22 18:34 49.55020 10.91882 6050 ft 260 kts
2026-04-22 18:34 49.56851 10.91996 6735 ft 266 kts
2026-04-22 18:34 49.58696 10.92220 6943 ft 266 kts
2026-04-22 18:34 49.60539 10.92437 7006 ft 266 kts
2026-04-22 18:35 49.62397 10.92608 7244 ft 271 kts
2026-04-22 18:35 49.64279 10.92732 8271 ft 270 kts
2026-04-22 18:35 49.66164 10.92822 9272 ft 272 kts
2026-04-22 18:35 49.68067 10.92890 10216 ft 275 kts
2026-04-22 18:36 49.69996 10.92786 11060 ft 281 kts 355°
2026-04-22 18:36 49.71970 10.92041 11480 ft 305 kts 343°
2026-04-22 18:36 49.74043 10.90919 11898 ft 323 kts 343°
2026-04-22 18:36 49.76191 10.89761 12633 ft 329 kts 343°
2026-04-22 18:37 49.78373 10.88585 13423 ft 334 kts 343°
2026-04-22 18:37 49.80580 10.87396 14220 ft 338 kts 343°
2026-04-22 18:37 49.82052 10.86605 14693 ft 340 kts 343°
2026-04-22 18:37 49.85074 10.84982 15645 ft 345 kts 343°
2026-04-22 18:38 49.87354 10.83753 16354 ft 349 kts 343°
2026-04-22 18:38 49.89658 10.82513 17059 ft 352 kts 344°
2026-04-22 18:38 49.91985 10.81262 17747 ft 356 kts 344°
2026-04-22 18:39 49.96713 10.78724 19064 ft 363 kts 344°
2026-04-22 18:39 49.99116 10.77433 19671 ft 367 kts 344°
2026-04-22 18:39 50.01536 10.76129 20276 ft 370 kts 344°
2026-04-22 18:39 50.03980 10.74808 20885 ft 374 kts 344°
2026-04-22 18:40 50.06390 10.73209 21473 ft 381 kts 335°
2026-04-22 18:40 50.08616 10.70896 22057 ft 390 kts 324°
2026-04-22 18:40 50.10588 10.67948 22296 ft 395 kts 317°
2026-04-22 18:40 50.12477 10.64840 22348 ft 395 kts 317°
2026-04-22 18:41 50.14361 10.61725 22348 ft 395 kts 317°
2026-04-22 18:41 50.16246 10.58612 22331 ft 395 kts 317°
2026-04-22 18:41 50.18133 10.55501 22345 ft 395 kts 317°
2026-04-22 18:41 50.20021 10.52389 22347 ft 395 kts 317°
2026-04-22 18:42 50.21907 10.49276 22345 ft 395 kts 317°
2026-04-22 18:42 50.23185 10.47172 22348 ft 395 kts 317°
2026-04-22 18:42 50.25088 10.44083 22348 ft 395 kts 317°
2026-04-22 18:42 50.27007 10.41007 22348 ft 395 kts 318°
2026-04-22 18:43 50.28927 10.37941 22346 ft 395 kts 318°
2026-04-22 18:43 50.30848 10.34875 22346 ft 395 kts 318°
2026-04-22 18:43 50.32765 10.31798 22349 ft 395 kts 318°
2026-04-22 18:43 50.34678 10.28709 22351 ft 395 kts 317°
2026-04-22 18:44 50.36540 10.25542 22350 ft 396 kts 315°
2026-04-22 18:44 50.38339 10.22266 22351 ft 396 kts 314°
2026-04-22 18:44 50.40169 10.19047 22349 ft 395 kts 316°
2026-04-22 18:44 50.42047 10.15903 22351 ft 394 kts 318°
2026-04-22 18:45 50.44200 10.13290 22634 ft 391 kts 335°
2026-04-22 18:45 50.46687 10.11622 23269 ft 390 kts 343°
2026-04-22 18:45 50.49237 10.10136 23862 ft 393 kts 343°
2026-04-22 18:45 50.51815 10.08653 24231 ft 396 kts 344°
2026-04-22 18:46 50.54406 10.07177 24325 ft 393 kts 344°
2026-04-22 18:46 50.56942 10.05735 24348 ft 385 kts 344°
2026-04-22 18:46 50.59450 10.04313 24349 ft 382 kts 344°
2026-04-22 18:46 50.61950 10.02896 24346 ft 382 kts 344°
2026-04-22 18:47 50.64450 10.01478 24346 ft 382 kts 344°
2026-04-22 18:47 50.66948 10.00054 24349 ft 382 kts 344°
2026-04-22 18:47 50.69444 9.98623 24348 ft 382 kts 344°
2026-04-22 18:47 50.71941 9.97189 24351 ft 382 kts 344°
2026-04-22 18:48 50.74435 9.95754 24344 ft 382 kts 344°
2026-04-22 18:48 50.76930 9.94320 24347 ft 381 kts 344°
2026-04-22 18:48 50.79426 9.92888 24346 ft 381 kts 344°
2026-04-22 18:48 50.81921 9.91456 24342 ft 381 kts 344°
2026-04-22 18:49 50.84414 9.90027 24348 ft 382 kts 344°
2026-04-22 18:49 50.86912 9.88595 24342 ft 382 kts 343°
2026-04-22 18:49 50.89406 9.87159 24342 ft 382 kts 343°
2026-04-22 18:49 50.91902 9.85714 24334 ft 382 kts 343°
2026-04-22 18:50 50.94394 9.84268 24333 ft 382 kts 343°
2026-04-22 18:50 50.96887 9.82820 24337 ft 382 kts 343°
2026-04-22 18:50 50.99387 9.81369 24332 ft 382 kts 343°
2026-04-22 18:50 51.01885 9.79920 24342 ft 383 kts 343°
2026-04-22 18:51 51.04387 9.78470 24341 ft 382 kts 343°
2026-04-22 18:51 51.06893 9.77056 24335 ft 381 kts 347°
2026-04-22 18:51 51.09481 9.76482 24336 ft 374 kts
2026-04-22 18:51 51.12061 9.76830 24339 ft 372 kts
2026-04-22 18:52 51.14635 9.77258 24339 ft 372 kts
2026-04-22 18:52 51.17207 9.77702 24333 ft 372 kts
2026-04-22 18:52 51.19782 9.78151 24328 ft 372 kts
2026-04-22 18:52 51.22361 9.78598 24330 ft 373 kts
2026-04-22 18:53 51.24942 9.79038 24331 ft 373 kts
2026-04-22 18:53 51.27525 9.79472 24333 ft 373 kts
2026-04-22 18:53 51.30108 9.79902 24336 ft 374 kts
2026-04-22 18:53 51.32696 9.80335 24341 ft 374 kts
2026-04-22 18:54 51.35281 9.80774 24348 ft 374 kts
2026-04-22 18:54 51.37865 9.81218 24349 ft 374 kts
2026-04-22 18:54 51.40447 9.81660 24336 ft 374 kts
2026-04-22 18:54 51.43033 9.82105 24335 ft 374 kts
2026-04-22 18:55 51.45623 9.82552 24339 ft 374 kts
2026-04-22 18:55 51.48216 9.82997 24344 ft 375 kts
2026-04-22 18:55 51.50810 9.83438 24346 ft 375 kts
2026-04-22 18:55 51.53409 9.83878 24348 ft 376 kts
2026-04-22 18:56 51.56008 9.84322 24347 ft 376 kts
2026-04-22 18:56 51.58606 9.84771 24349 ft 376 kts
2026-04-22 18:56 51.61207 9.85223 24352 ft 376 kts
2026-04-22 18:56 51.63805 9.85675 24347 ft 376 kts
2026-04-22 18:57 51.66407 9.86128 24347 ft 376 kts
2026-04-22 18:57 51.69011 9.86579 24348 ft 377 kts
2026-04-22 18:57 51.71616 9.87029 24348 ft 377 kts
2026-04-22 18:57 51.74225 9.87478 24349 ft 377 kts
2026-04-22 18:58 51.76837 9.87927 24347 ft 377 kts
2026-04-22 18:58 51.79446 9.88373 24349 ft 377 kts
2026-04-22 18:58 51.82091 9.88827 24351 ft 377 kts
2026-04-22 18:58 51.84702 9.89282 24353 ft 377 kts
2026-04-22 18:59 51.87310 9.89743 24345 ft 377 kts
2026-04-22 18:59 51.89921 9.90202 24344 ft 378 kts
2026-04-22 18:59 51.92537 9.90660 24345 ft 378 kts
2026-04-22 18:59 51.95155 9.91115 24347 ft 378 kts
2026-04-22 19:00 51.97772 9.91569 24353 ft 379 kts
2026-04-22 19:00 52.00392 9.92024 24356 ft 379 kts
2026-04-22 19:00 52.03014 9.92485 24360 ft 379 kts
2026-04-22 19:00 52.05636 9.92945 24362 ft 379 kts
2026-04-22 19:01 52.08256 9.93404 24361 ft 379 kts
2026-04-22 19:01 52.10878 9.93865 24355 ft 379 kts
2026-04-22 19:01 52.13501 9.94328 24354 ft 379 kts
2026-04-22 19:01 52.16124 9.94792 24350 ft 380 kts
2026-04-22 19:02 52.18752 9.95255 24350 ft 380 kts
2026-04-22 19:02 52.21379 9.95716 24350 ft 380 kts
2026-04-22 19:02 52.24011 9.96179 24351 ft 380 kts
2026-04-22 19:02 52.26640 9.96646 24348 ft 380 kts
2026-04-22 19:03 52.29271 9.97119 24346 ft 380 kts
2026-04-22 19:03 52.31897 9.97591 24348 ft 380 kts
2026-04-22 19:03 52.34528 9.98062 24337 ft 380 kts
2026-04-22 19:03 52.37160 9.98531 24334 ft 381 kts
2026-04-22 19:04 52.39837 9.99009 24339 ft 392 kts
2026-04-22 19:04 52.42566 9.99496 24335 ft 396 kts
2026-04-22 19:04 52.45315 9.99986 24331 ft 397 kts
2026-04-22 19:04 52.48063 10.00476 24331 ft 398 kts
2026-04-22 19:05 52.50814 10.00966 24329 ft 398 kts
2026-04-22 19:05 52.53566 10.01460 24326 ft 398 kts
2026-04-22 19:05 52.56286 10.02185 24324 ft 391 kts 17°
2026-04-22 19:05 52.58879 10.03341 24321 ft 383 kts 18°
2026-04-22 19:06 52.61444 10.04487 24328 ft 382 kts 18°
2026-04-22 19:06 52.64004 10.05628 24328 ft 381 kts 18°
2026-04-22 19:06 52.66566 10.06774 24326 ft 381 kts 18°
2026-04-22 19:07 52.71691 10.09082 24334 ft 388 kts 18°
2026-04-22 19:07 52.74323 10.10264 24334 ft 394 kts 18°
2026-04-22 19:07 52.76982 10.11408 24330 ft 397 kts 14°
2026-04-22 19:07 52.79743 10.11860 24333 ft 401 kts
2026-04-22 19:08 52.82530 10.11938 24322 ft 401 kts
2026-04-22 19:08 52.85313 10.12021 23914 ft 399 kts
2026-04-22 19:08 52.88072 10.12108 23100 ft 394 kts
2026-04-22 19:08 52.90795 10.12198 22271 ft 389 kts
2026-04-22 19:09 52.93481 10.12287 21496 ft 383 kts
2026-04-22 19:09 52.96128 10.12375 20736 ft 378 kts
2026-04-22 19:09 52.97863 10.12433 20239 ft 374 kts
2026-04-22 19:09 53.01308 10.12549 19257 ft 367 kts
2026-04-22 19:10 53.03840 10.12632 18524 ft 361 kts
2026-04-22 19:10 53.06337 10.12716 17704 ft 356 kts
2026-04-22 19:10 53.08798 10.12799 16931 ft 351 kts
2026-04-22 19:10 53.11210 10.12876 16457 ft 344 kts
2026-04-22 19:11 53.13588 10.12953 16047 ft 340 kts
2026-04-22 19:11 53.15938 10.13029 15640 ft 336 kts
2026-04-22 19:11 53.18265 10.13109 15238 ft 333 kts
2026-04-22 19:11 53.20570 10.13194 14837 ft 330 kts
2026-04-22 19:12 53.22855 10.13278 14440 ft 327 kts
2026-04-22 19:12 53.25124 10.13358 14024 ft 325 kts
2026-04-22 19:12 53.27376 10.13431 13604 ft 321 kts
2026-04-22 19:12 53.29597 10.13502 13207 ft 317 kts
2026-04-22 19:13 53.31792 10.13571 12796 ft 314 kts
2026-04-22 19:13 53.33961 10.13642 12404 ft 310 kts
2026-04-22 19:13 53.36107 10.13712 12009 ft 307 kts
2026-04-22 19:13 53.38230 10.13781 11618 ft 304 kts
2026-04-22 19:14 53.40333 10.13748 11242 ft 301 kts 356°
2026-04-22 19:14 53.42400 10.13465 11076 ft 297 kts 356°
2026-04-22 19:14 53.44454 10.13205 10877 ft 295 kts 357°
2026-04-22 19:14 53.46497 10.12957 10677 ft 294 kts 357°
2026-04-22 19:15 53.47843 10.12792 10542 ft 291 kts 356°
2026-04-22 19:15 53.50479 10.12462 10298 ft 278 kts 356°
2026-04-22 19:15 53.52392 10.12221 10059 ft 275 kts 356°
2026-04-22 19:15 53.54273 10.11985 9865 ft 266 kts 356°
2026-04-22 19:16 53.56080 10.11766 9726 ft 255 kts 358°
2026-04-22 19:16 53.57791 10.12156 9597 ft 244 kts 19°
2026-04-22 19:16 53.59254 10.13496 9458 ft 239 kts 37°
2026-04-22 19:16 53.60418 10.15557 8915 ft 244 kts 48°
2026-04-22 19:17 53.61500 10.17751 8371 ft 243 kts 48°
2026-04-22 19:17 53.62574 10.19928 7839 ft 241 kts 48°
2026-04-22 19:17 53.63643 10.22086 7315 ft 239 kts 47°
2026-04-22 19:17 53.64703 10.24226 6818 ft 236 kts 47°
2026-04-22 19:18 53.65746 10.26329 6565 ft 232 kts 47°
2026-04-22 19:18 53.66779 10.28407 6305 ft 231 kts 47°
2026-04-22 19:18 53.67811 10.30481 6046 ft 230 kts 47°
2026-04-22 19:18 53.68839 10.32547 5770 ft 230 kts 47°
2026-04-22 19:19 53.69530 10.33943 5595 ft 229 kts 47°
2026-04-22 19:19 53.70548 10.36008 5338 ft 229 kts 47°
2026-04-22 19:19 53.71564 10.38067 5094 ft 227 kts 47°
2026-04-22 19:19 53.72572 10.40114 4974 ft 228 kts 47°
2026-04-22 19:20 53.73586 10.42170 4972 ft 228 kts 47°
2026-04-22 19:20 53.74608 10.44229 4851 ft 230 kts 45°
2026-04-22 19:20 53.75911 10.45708 4710 ft 224 kts 15°
2026-04-22 19:20 53.77430 10.45742 4438 ft 219 kts 342°
2026-04-22 19:21 53.78661 10.44333 4202 ft 216 kts 309°
2026-04-22 19:21 53.79172 10.41993 4011 ft 214 kts 275°
2026-04-22 19:21 53.79056 10.39522 3968 ft 209 kts 265°
2026-04-22 19:21 53.78845 10.37104 3976 ft 208 kts 264°
2026-04-22 19:22 53.78622 10.34691 3982 ft 208 kts 264°
2026-04-22 19:22 53.78402 10.32319 3977 ft 198 kts 264°
2026-04-22 19:22 53.78150 10.30119 3996 ft 185 kts 253°
2026-04-22 19:22 53.77490 10.28287 4056 ft 185 kts 234°
2026-04-22 19:23 53.76675 10.26622 4013 ft 184 kts 234°
2026-04-22 19:23 53.75861 10.24953 3844 ft 183 kts 234°
2026-04-22 19:23 53.75058 10.23309 3629 ft 181 kts 234°
2026-04-22 19:23 53.74258 10.21672 3392 ft 180 kts 234°
2026-04-22 19:24 53.73463 10.20046 3144 ft 179 kts 234°
2026-04-22 19:24 53.72671 10.18428 2910 ft 178 kts 234°
2026-04-22 19:24 53.71883 10.16820 2660 ft 177 kts 234°
2026-04-22 19:24 53.71082 10.15181 2431 ft 189 kts 234°
2026-04-22 19:25 53.70254 10.13497 2155 ft 181 kts 234°
2026-04-22 19:25 53.69479 10.11922 1916 ft 169 kts 235°
2026-04-22 19:25 53.68754 10.10448 1710 ft 154 kts 236°
2026-04-22 19:25 53.68101 10.09122 1485 ft 140 kts 236°
2026-04-22 19:26 53.67497 10.07889 1302 ft 134 kts 237°
2026-04-22 19:26 53.66907 10.06688 1125 ft 132 kts 237°
2026-04-22 19:26 53.66325 10.05502 950 ft 130 kts 236°
2026-04-22 19:26 53.65752 10.04339 768 ft 128 kts 237°
2026-04-22 19:27 53.65181 10.03200 632 ft 133 kts 234°
2026-04-22 19:27 53.64577 10.01961 413 ft 133 kts 234°
2026-04-22 19:27 53.64008 10.00803 208 ft 122 kts 233°
2026-04-22 19:27 53.63495 9.99754 53 ft 106 kts 235°
2026-04-22 19:28 53.63107 9.98962 46 ft 70 kts 230°
2026-04-22 19:28 53.62869 9.98530 44 ft 37 kts 208°
2026-04-22 19:28 53.62719 9.98473 46 ft 0 kts 174°
2026-04-22 19:29 53.62715 9.98474 46 ft 1 kts 172°
2026-04-22 19:29 53.62697 9.98490 46 ft 5 kts 136°
2026-04-22 19:30 53.62692 9.98541 47 ft 9 kts 78°
2026-04-22 19:30 53.62767 9.98707 47 ft 18 kts 50°
2026-04-22 19:30 53.62851 9.98876 47 ft 19 kts 50°
2026-04-22 19:30 53.62937 9.99052 47 ft 20 kts 51°
2026-04-22 19:31 53.63025 9.99230 46 ft 20 kts 50°
2026-04-22 19:31 53.63109 9.99421 45 ft 21 kts 56°
2026-04-22 19:31 53.63196 9.99617 47 ft 19 kts 51°
2026-04-22 19:31 53.63217 9.99661 48 ft 0 kts 51°
2026-04-22 19:32 53.63218 9.99661 48 ft 0 kts 51°
2026-04-22 19:33 53.63229 9.99693 48 ft 5 kts 70°
2026-04-22 19:33 53.63219 9.99751 47 ft 6 kts 125°
2026-04-22 19:33 53.63181 9.99796 48 ft 7 kts 152°
2026-04-22 19:33 53.63132 9.99838 48 ft 9 kts 152°
2026-04-22 19:34 53.63122 9.99921 48 ft 8 kts 50°
2026-04-22 19:34 53.63164 10.00002 48 ft 10 kts 49°
2026-04-22 19:34 53.63212 10.00095 48 ft 11 kts 49°
2026-04-22 19:34 53.63257 10.00208 48 ft 11 kts 52°
2026-04-22 19:35 53.63326 10.00252 47 ft 10 kts 57°
2026-04-22 19:35 53.63331 10.00356 49 ft 1 kts 87°